Tracking 34348 objects as of 9-Jun-2026
HD Live streaming from Space Station
objects crossing your sky now

DELTA 1 DEB

Track DELTA 1 DEB now!
10-day predictions


NORAD ID: 9979
Int'l Code: 1973-086GJ
Perigee: 1,414.5 km
Apogee: 2,416.1 km
Inclination: 101.9 °
Period: 125.1 minutes
Semi major axis: 8286 km
RCS: 0.0244 m2 (small)
Launch date: November 6, 1973
Source: United States (US)
Launch site: AIR FORCE WESTERN TEST RANGE (AFWTR)

Note: This is SATELLITE DEBRIS
Your satellite tracking list
Your tracking list is empty




NASA's NSSDC Master Catalog

Two Line Element Set (TLE):
1 09979U 73086GJ  26146.06593476  .00000445  00000-0  68881-2 0  9993
2 09979 101.9393  69.6860 0604369  10.5531   1.9539 11.50965037517377
Source of the keplerian elements: AFSPC